Location: Berg
(48.5667°N, 13.9833°E)
Time: 09:15:43
(UTC+00:00)

STARLINK-1234 - Pass Details

Date: 09 April 2020
Orbit: 378 x 381 km, 53.0° (Epoch: 25 May)

Event Time Altitude Azimuth Distance (km) Brightness Sun altitude
Rises 18:08:21 0° 295° (WNW) 2,262 9.3 -4.2°
Reaches altitude 10° 18:10:25 10° 297° (WNW) 1,406 7.5 -4.6°
Maximum altitude 18:13:34 75° 24° (NNE) 400 2.9 -5.1°
Drops below altitude 10° 18:16:41 10° 110° (ESE) 1,398 5.0 -5.5°
Enters shadow 18:17:09 - 110° (ESE) 1,592 5.3 -5.6°
